DW1774 Weather Reports


time (UTC)temp
F
wind
direction
speed
knots
gust
knots
rain 1hr
in
rain 24hr
in
rain mn
in
humidity
%
barometer
mb
20260510040905 77 134 2.6 10.4 0.08 0.08 0.08 88 1012.1
20260510040404 77 137 4.3 10.4 0.08 0.08 0.08 88 1012.1
20260510035905 77 107 1.7 7.0 0.08 0.08 0.08 87 1012.1
20260510035403 77 92 1.7 6.1 0.08 0.08 0.08 87 1012.0
20260510034904 77 85 0.9 2.6 0.08 0.08 0.08 87 1012.0
20260510034404 77 129 0.0 2.6 0.08 0.08 0.08 86 1011.9
20260510033905 77 80 0.9 6.1 0.08 0.08 0.08 86 1011.8
20260510033404 78 148 0.9 8.7 0.07 0.07 0.07 86 1011.6
20260510032404 78 143 1.7 6.1 0.05 0.05 0.05 86 1011.5
20260510031905 78 158 1.7 6.1 0.00 0.00 0.00 85 1011.8
20260510030904 78 80 1.7 8.7 0.00 0.00 0.00 85 1011.9
20260510030405 78 76 3.5 8.7 0.00 0.00 0.00 85 1011.9
20260510025904 79 62 3.5 13.0 0.00 0.00 0.00 85 1011.9
20260510025405 79 67 1.7 13.0 0.00 0.00 0.00 84 1011.7
20260510024904 79 99 2.6 13.0 0.00 0.00 0.00 84 1011.6
20260510024405 79 120 2.6 11.3 0.00 0.00 0.00 84 1011.4
20260510023904 79 140 4.3 11.3 0.00 0.00 0.00 84 1011.3
20260510023404 79 98 2.6 7.0 0.00 0.00 0.00 84 1011.2
20260510022904 79 98 2.6 7.0 0.00 0.00 0.00 83 1011.1
20260510022403 79 124 2.6 10.4 0.00 0.00 0.00 83 1011.1
20260510021904 79 135 3.5 10.4 0.00 0.00 0.00 82 1011.1
20260510020905 80 145 3.5 10.4 0.00 0.00 0.00 81 1010.7
20260510020405 80 139 3.5 10.4 0.00 0.00 0.00 80 1010.6
20260510015905 80 145 4.3 12.2 0.00 0.00 0.00 80 1010.3
20260510015404 80 149 4.3 12.2 0.00 0.00 0.00 79 1009.9
20260510014904 81 141 5.2 12.2 0.00 0.00 0.00 77 1009.8
20260510014404 81 160 3.5 10.4 0.00 0.00 0.00 75 1009.8
20260510013404 82 171 2.6 7.8 0.00 0.00 0.00 74 1009.6
20260510012904 82 173 3.5 7.8 0.00 0.00 0.00 71 1009.6
20260510012403 82 174 2.6 8.7 0.00 0.00 0.00 69 1009.4
20260510011904 82 174 2.6 10.4 0.00 0.00 0.00 69 1009.2
20260510011404 82 182 4.3 10.4 0.00 0.00 0.00 69 1008.9
20260510010904 82 156 5.2 8.7 0.00 0.00 0.00 69 1008.8
20260510010405 83 148 2.6 10.4 0.00 0.00 0.00 69 1008.7
20260510005904 83 145 2.6 10.4 0.00 0.00 0.00 70 1008.6
20260510005404 83 145 4.3 10.4 0.00 0.00 0.00 70 1008.6
20260510004404 84 152 2.6 10.4 0.00 0.00 0.00 70 1008.5
20260510003904 84 150 3.5 10.4 0.00 0.00 0.00 69 1008.4
20260510003405 84 148 1.7 6.1 0.00 0.00 0.00 67 1008.4
20260510002905 84 148 3.5 6.1 0.00 0.00 0.00 66 1008.5
20260510002403 84 148 3.5 6.1 0.00 0.00 0.00 65 1008.4
20260510001404 85 148 2.6 7.8 0.00 0.00 0.00 64 1008.4
20260510000405 86 148 0.9 6.1 0.00 0.00 0.00 64 1008.2
20260509235404 86 148 1.7 6.1 0.00 0.00 0.00 63 1008.1
20260509234903 87 148 0.9 7.0 0.00 0.00 0.00 63 1008.0
20260509233904 88 148 2.6 7.8 0.00 0.00 0.00 62 1008.0
20260509233403 88 149 2.6 10.4 0.00 0.00 0.00 61 1007.9
20260509232404 90 142 2.6 7.8 0.00 0.00 0.00 60 1007.9
20260509231405 90 141 0.9 7.8 0.00 0.00 0.00 60 1008.2
20260509230904 90 143 1.7 7.8 0.00 0.00 0.00 60 1008.1
20260509230404 90 148 3.5 10.4 0.00 0.00 0.00 60 1008.0
20260509225904 91 149 5.2 10.4 0.00 0.00 0.00 61 1008.1
20260509225404 91 150 2.6 7.0 0.00 0.00 0.00 61 1008.0
20260509224904 91 150 2.6 6.1 0.00 0.00 0.00 61 1007.8
20260509224404 91 150 1.7 8.7 0.00 0.00 0.00 62 1007.7
20260509223905 90 150 2.6 8.7 0.00 0.00 0.00 61 1007.7
20260509223404 91 150 4.3 8.7 0.00 0.00 0.00 61 1007.8
20260509222904 91 150 4.3 10.4 0.00 0.00 0.00 61 1007.8
20260509222404 92 150 1.7 10.4 0.00 0.00 0.00 59 1007.9
20260509220904 93 165 2.6 7.8 0.00 0.00 0.00 58 1007.6
20260509220404 94 167 1.7 7.8 0.00 0.00 0.00 56 1007.6
20260509215904 94 168 2.6 7.8 0.00 0.00 0.00 55 1007.6
20260509215404 94 168 3.5 7.8 0.00 0.00 0.00 54 1007.6
20260509214904 95 179 1.7 6.1 0.00 0.00 0.00 55 1007.6
20260509213905 95 179 1.7 10.4 0.00 0.00 0.00 54 1007.6
20260509213404 95 190 3.5 8.7 0.00 0.00 0.00 54 1007.5
20260509212404 96 211 1.7 4.3 0.00 0.00 0.00 51 1007.5
20260509211904 96 214 1.7 5.2 0.00 0.00 0.00 49 1007.5
20260509211404 97 215 0.9 6.1 0.00 0.00 0.00 50 1007.6
20260509210905 97 215 2.6 6.1 0.00 0.00 0.00 52 1007.6
20260509210405 96 230 0.9 2.6 0.00 0.00 0.00 53 1007.5
20260509205905 96 230 0.9 5.2 0.00 0.00 0.00 53 1007.7
20260509205404 97 229 1.7 5.2 0.00 0.00 0.00 51 1007.7
20260509204904 97 231 0.9 5.2 0.00 0.00 0.00 53 1007.7
20260509204404 97 245 2.6 5.2 0.00 0.00 0.00 53 1007.8
20260509203904 96 270 1.7 2.6 0.00 0.00 0.00 52 1007.8
20260509202904 95 271 1.7 6.1 0.00 0.00 0.00 56 1007.9
20260509202404 95 272 1.7 6.1 0.00 0.00 0.00 54 1007.9
20260509201904 95 248 0.9 4.3 0.00 0.00 0.00 54 1007.9
20260509201404 95 250 1.7 4.3 0.00 0.00 0.00 56 1008.0
20260509200904 94 260 0.9 4.3 0.00 0.00 0.00 59 1008.1
20260509200404 94 265 0.0 4.3 0.00 0.00 0.00 57 1008.3
20260509195904 94 265 0.0 0.9 0.00 0.00 0.00 50 1008.4
20260509195404 94 265 0.0 1.7 0.00 0.00 0.00 50 1008.4
20260509194903 95 265 0.0 2.6 0.00 0.00 0.00 49 1008.4
20260509194404 95 265 0.9 2.6 0.00 0.00 0.00 48 1008.4
20260509193904 95 265 0.9 2.6 0.00 0.00 0.00 50 1008.4
20260509193404 95 266 0.9 4.3 0.00 0.00 0.00 50 1008.4
20260509192905 94 266 1.7 4.3 0.00 0.00 0.00 53 1008.4
20260509192403 94 246 1.7 4.3 0.00 0.00 0.00 52 1008.4
20260509191403 93 229 0.9 2.6 0.00 0.00 0.00 52 1008.4
20260509190904 93 229 0.9 2.6 0.00 0.00 0.00 55 1008.4
20260509190403 93 229 0.0 2.6 0.00 0.00 0.00 56 1008.5
20260509185905 93 229 0.9 2.6 0.00 0.00 0.00 53 1008.7
20260509185404 92 229 0.9 2.6 0.00 0.00 0.00 54 1008.8
20260509184903 92 223 1.7 2.6 0.00 0.00 0.00 54 1008.7
20260509184404 92 220 0.9 2.6 0.00 0.00 0.00 59 1008.7
20260509183904 91 220 0.9 2.6 0.00 0.00 0.00 58 1008.7
20260509183404 91 220 0.0 2.6 0.00 0.00 0.00 63 1008.9
20260509182904 90 220 0.9 2.6 0.00 0.00 0.00 61 1009.1
20260509182403 90 220 1.7 2.6 0.00 0.00 0.00 63 1009.2
20260509181903 89 219 0.9 2.6 0.00 0.00 0.00 62 1009.3
20260509181403 89 216 0.0 2.6 0.00 0.00 0.00 65 1009.3
20260509180903 88 216 1.7 4.3 0.00 0.00 0.00 65 1009.4
20260509180404 87 216 0.9 7.0 0.00 0.00 0.00 68 1009.6
20260509175903 87 214 1.7 7.0 0.00 0.00 0.00 69 1009.7
20260509175404 86 220 0.9 2.6 0.00 0.00 0.00 70 1009.8
20260509174903 86 220 0.9 2.6 0.00 0.00 0.00 71 1010.1
20260509174403 85 220 0.0 2.6 0.00 0.00 0.00 73 1010.1
20260509173904 85 220 0.0 2.6 0.00 0.01 0.00 72 1010.2
20260509173403 85 220 0.9 2.6 0.00 0.01 0.00 73 1010.3
20260509172903 85 220 0.9 5.2 0.00 0.01 0.00 72 1010.3
20260509172403 85 220 1.7 5.2 0.00 0.01 0.00 72 1010.2
20260509171904 85 208 0.9 5.2 0.00 0.01 0.00 72 1010.2
20260509171403 85 208 0.9 5.2 0.00 0.01 0.00 72 1010.2
20260509170904 85 207 0.9 5.2 0.00 0.01 0.00 73 1010.3
20260509170404 85 206 0.9 2.6 0.00 0.02 0.00 73 1010.3
20260509165404 85 204 1.7 5.2 0.00 0.02 0.00 72 1010.3
20260509163904 86 187 1.7 5.2 0.00 0.02 0.00 72 1010.4
20260509163404 86 162 0.9 2.6 0.00 0.02 0.00 74 1010.2
20260509162904 85 162 0.0 1.7 0.00 0.02 0.00 75 1010.2
20260509162403 85 162 0.0 0.0 0.00 0.03 0.00 75 1010.1
20260509161903 84 162 0.0 0.0 0.00 0.03 0.00 76 1010.1
20260509161403 84 162 0.0 0.9 0.00 0.03 0.00 76 1010.1
20260509160903 84 162 0.0 1.7 0.00 0.03 0.00 78 1010.0
20260509160404 83 162 0.9 1.7 0.00 0.03 0.00 79 1010.2
20260509155903 82 162 0.0 0.0 0.00 0.03 0.00 80 1010.2
20260509155404 82 162 0.0 0.0 0.00 0.03 0.00 80 1010.4
20260509154904 81 162 0.0 0.9 0.00 0.03 0.00 82 1010.5
20260509154403 81 162 0.0 4.3 0.00 0.03 0.00 83 1010.3
20260509153903 80 161 0.0 7.0 0.00 0.03 0.00 83 1010.1
20260509153405 80 150 1.7 7.0 0.00 0.03 0.00 84 1009.7
20260509152903 80 178 2.6 7.0 0.00 0.03 0.00 85 1009.8
20260509152403 79 164 1.7 6.1 0.00 0.03 0.00 85 1009.9
20260509151903 79 166 3.5 6.1 0.00 0.03 0.00 85 1009.8
20260509150903 79 181 2.6 4.3 0.00 0.03 0.00 86 1009.9
20260509150403 79 182 1.7 4.3 0.00 0.03 0.00 86 1009.5
20260509145903 79 185 1.7 2.6 0.00 0.03 0.00 86 1009.8
20260509144403 78 190 1.7 2.6 0.00 0.03 0.00 88 1010.2
20260509143403 78 191 0.9 4.3 0.00 0.03 0.00 89 1010.3
20260509142903 78 187 0.9 6.1 0.00 0.03 0.00 89 1010.4
20260509142403 78 179 1.7 6.1 0.00 0.03 0.00 90 1010.2
20260509141904 78 180 1.7 4.3 0.00 0.03 0.00 90 1010.0
20260509141403 78 193 0.9 4.3 0.00 0.03 0.00 90 1010.1
20260509140404 77 193 0.9 2.6 0.00 0.03 0.00 91 1010.1
20260509135404 77 193 0.0 2.6 0.00 0.03 0.00 91 1010.1
20260509134903 77 193 0.0 2.6 0.00 0.03 0.00 91 1010.1
20260509134405 77 193 0.9 2.6 0.00 0.03 0.00 91 1009.9
20260509133903 77 192 0.0 1.7 0.00 0.03 0.00 91 1009.9
20260509133404 77 192 0.0 1.7 0.00 0.03 0.00 92 1009.9
20260509132904 77 192 0.0 1.7 0.00 0.03 0.00 91 1010.2
20260509132403 76 192 0.0 1.7 0.00 0.03 0.00 91 1010.5
20260509131905 76 192 0.0 1.7 0.00 0.03 0.00 91 1010.5
20260509131404 76 192 0.0 1.7 0.00 0.03 0.00 91 1010.3
20260509130904 76 192 0.9 2.6 0.00 0.03 0.00 91 1010.3
20260509125904 76 192 0.9 4.3 0.00 0.03 0.00 91 1010.0
20260509125404 76 188 0.9 4.3 0.00 0.03 0.00 91 1009.9
20260509124905 76 188 0.0 5.2 0.00 0.03 0.00 91 1010.0
20260509124403 76 187 1.7 5.2 0.00 0.03 0.00 91 1010.1
20260509123904 76 155 0.0 1.7 0.00 0.03 0.00 91 1010.1
20260509122404 75 155 0.0 0.0 0.00 0.03 0.00 91 1010.1
20260509121904 75 155 0.0 0.0 0.00 0.03 0.00 91 1009.9
20260509121404 75 155 0.0 0.0 0.00 0.03 0.00 91 1009.8
20260509120404 75 155 0.0 0.0 0.00 0.03 0.00 91 1010.0
20260509115404 75 155 0.0 0.0 0.00 0.03 0.00 91 1010.0
20260509114404 75 155 0.0 0.0 0.00 0.03 0.00 91 1010.2
20260509113404 74 155 0.0 0.0 0.00 0.03 0.00 91 1010.1
20260509112904 74 155 0.0 0.0 0.00 0.03 0.00 91 1010.0
20260509112404 74 155 0.0 0.0 0.00 0.03 0.00 91 1010.1
20260509111904 74 155 0.0 0.0 0.00 0.03 0.00 91 1010.1
20260509111403 74 155 0.0 0.0 0.00 0.03 0.00 91 1010.0
20260509110904 74 155 0.0 0.0 0.00 0.03 0.00 91 1009.8
20260509110405 74 155 0.0 0.0 0.00 0.03 0.00 91 1009.6
20260509105404 74 155 0.0 0.0 0.00 0.03 0.00 91 1009.4
20260509104905 74 155 0.0 0.0 0.00 0.03 0.00 91 1009.3
20260509104405 74 155 0.0 0.0 0.00 0.03 0.00 91 1009.4
20260509103904 74 155 0.0 0.0 0.00 0.03 0.00 91 1009.4
20260509103404 74 155 0.0 0.0 0.00 0.03 0.00 91 1009.5
20260509102904 74 155 0.0 0.0 0.00 0.03 0.00 91 1009.7
20260509101904 74 155 0.0 0.0 0.00 0.03 0.00 91 1009.4
20260509101405 74 155 0.0 0.0 0.00 0.03 0.00 91 1009.5
20260509100905 74 155 0.0 0.0 0.00 0.03 0.00 90 1009.7
20260509100404 74 155 0.0 0.0 0.00 0.03 0.00 90 1009.7
20260509095904 74 155 0.0 0.0 0.00 0.03 0.00 90 1009.4
20260509095404 74 155 0.0 0.0 0.00 0.03 0.00 90 1009.4
20260509094903 74 155 0.0 0.0 0.00 0.03 0.00 90 1009.2
20260509094405 74 155 0.0 0.0 0.00 0.04 0.00 90 1009.2
20260509093904 74 155 0.0 0.0 0.00 0.04 0.00 90 1009.2
20260509093404 74 155 0.0 0.0 0.00 0.04 0.00 90 1009.2
20260509092904 74 155 0.0 0.0 0.00 0.04 0.00 90 1009.2
20260509092405 74 155 0.0 0.0 0.00 0.04 0.00 90 1009.1
20260509091904 73 155 0.0 0.0 0.00 0.04 0.00 90 1009.0
20260509091404 73 155 0.0 0.0 0.00 0.04 0.00 90 1008.9
20260509090905 73 155 0.0 0.0 0.00 0.04 0.00 90 1009.0
20260509090405 73 155 0.0 0.0 0.00 0.04 0.00 90 1009.0
20260509085405 73 155 0.0 0.0 0.00 0.04 0.00 90 1009.0
20260509084904 74 155 0.0 0.0 0.00 0.04 0.00 90 1009.1
20260509084405 74 155 0.0 0.0 0.00 0.04 0.00 90 1009.0
20260509083904 74 155 0.0 0.0 0.00 0.04 0.00 90 1009.0
20260509083404 74 155 0.0 0.0 0.00 0.04 0.00 90 1009.1
20260509082904 74 155 0.0 0.0 0.00 0.04 0.00 90 1009.2
20260509082405 74 155 0.0 0.0 0.00 0.04 0.00 90 1009.1
20260509081904 74 155 0.0 0.0 0.00 0.04 0.00 90 1009.2
20260509081403 74 155 0.0 0.0 0.00 0.04 0.00 89 1009.2
20260509080904 74 155 0.0 0.0 0.00 0.04 0.00 89 1009.3
20260509080404 74 155 0.0 0.0 0.00 0.04 0.00 89 1009.3
20260509075905 74 155 0.0 0.0 0.00 0.04 0.00 89 1009.4
20260509075404 74 155 0.0 0.0 0.00 0.04 0.00 89 1009.5
20260509074904 74 155 0.0 0.0 0.00 0.04 0.00 89 1009.6
20260509074404 74 155 0.0 0.0 0.00 0.04 0.00 89 1009.6
20260509073903 74 155 0.0 0.0 0.00 0.04 0.00 89 1009.7
20260509073403 74 155 0.0 0.0 0.00 0.04 0.00 89 1009.7
20260509072905 74 155 0.0 0.0 0.00 0.04 0.00 89 1009.7
20260509072405 74 155 0.0 0.0 0.00 0.04 0.00 89 1009.8
20260509071905 74 155 0.0 0.0 0.00 0.04 0.00 89 1009.8
20260509071404 74 155 0.0 0.0 0.00 0.04 0.00 89 1009.8
20260509070404 74 155 0.0 0.0 0.00 0.04 0.00 89 1009.8
20260509065904 74 155 0.0 0.0 0.00 0.04 0.00 89 1009.6
20260509065404 74 155 0.0 0.0 0.00 0.04 0.00 89 1009.6
20260509064404 75 155 0.0 0.0 0.00 0.04 0.00 89 1009.5
20260509063904 75 155 0.0 0.0 0.00 0.04 0.00 89 1009.6
20260509063404 75 155 0.0 0.0 0.00 0.04 0.00 89 1009.6
20260509062904 75 155 0.0 0.0 0.00 0.04 0.00 89 1009.7
20260509061904 75 155 0.0 0.0 0.00 0.04 0.00 89 1010.0
20260509061405 75 155 0.0 0.0 0.00 0.04 0.00 89 1009.9
20260509060905 75 155 0.0 0.0 0.00 0.04 0.00 89 1009.8
20260509055904 76 155 0.0 0.0 0.00 0.04 0.00 89 1009.8
20260509055404 76 155 0.0 1.7 0.00 0.04 0.00 89 1009.8
20260509054905 76 155 0.0 1.7 0.00 0.04 0.00 89 1009.9
20260509054404 76 155 0.9 1.7 0.00 0.04 0.00 89 1009.9
20260509053403 76 154 0.0 1.7 0.00 0.04 0.00 89 1010.0
20260509052404 76 154 0.9 2.6 0.00 0.04 0.00 89 1010.0
20260509051904 76 155 0.9 2.6 0.00 0.04 0.00 89 1010.0
20260509051403 76 155 0.0 2.6 0.00 0.04 0.00 89 1010.1
20260509050904 76 155 0.9 2.6 0.00 0.04 0.00 89 1010.2
20260509050405 76 155 0.9 2.6 0.00 0.04 0.00 89 1010.2
20260509045405 76 154 0.9 2.6 0.00 0.04 0.04 89 1010.3
20260509044905 76 154 0.9 4.3 0.00 0.04 0.04 89 1010.3
20260509044404 76 154 1.7 5.2 0.00 0.04 0.04 89 1010.3
20260509043904 76 153 1.7 5.2 0.00 0.04 0.04 89 1010.4
20260509043403 76 166 0.9 4.3 0.00 0.04 0.04 89 1010.3